Regional Weather Roundup
Issued by NWS

Home | Current Version | Previous Version | Graphics & Text | Print | Product List | Glossary On
Versions: 1 2 3 4 5 6 7 8 9 10 11 12 13 14 15 16 17 18 19 20 21 22 23 24 25 26 27 28 29 30 31 32 33 34 35 36 37 38 39 40 41 42 43 44 45 46 47 48 49 50
000
ASUS43 KLMK 020410
RWRKY
KENTUCKY REGIONAL WEATHER ROUNDUP
NATIONAL WEATHER SERVICE LOUISVILLE KY
1200 AM EDT TUE SEP 02 2014

NOTE "FAIR" INDICATES FEW OR NO CLOUDS BELOW 12,000 FEET
WITH NO SIGNIFICANT WEATHER AND/OR OBSTRUCTIONS TO VISIBILITY.

KYZ001>023-026-027-061>063-070>075-020500-
WESTERN AND SOUTH CENTRAL KENTUCKY

CITY           SKY/WX    TMP DP  RH WIND       PRES   REMARKS
PADUCAH        CLEAR     80  72  76 S7        29.94F
HENDERSON      PTCLDY    75  72  88 S6        29.95S
OWENSBORO      NOT AVBL
HOPKINSVILLE   PTCLDY    78  72  80 S6        30.00R
BOWLING GREEN  CLEAR     77  69  76 S6        30.01S
GLASGOW        CLEAR     74  68  82 CALM      30.02S
$$

KYZ024-025-028>034-038-045-046-053-020500-
NORTH CENTRAL KENTUCKY

CITY           SKY/WX    TMP DP  RH WIND       PRES   REMARKS
LOUISVILLE/SDF PTCLDY    80  72  76 S8        29.97S
LOUISVILLE/LOU CLEAR     79  71  76 SW5       29.98S
FORT KNOX      PTCLDY    74  74 100 S3        29.99R
$$

KYZ035>037-039>044-047>052-055>060-089>105-020500-
NORTHEAST KENTUCKY

CITY           SKY/WX    TMP DP  RH WIND       PRES   REMARKS
LEXINGTON      PTCLDY    74  71  91 S7        30.02F
COVINGTON      CLEAR     75  70  84 S6        29.97S
FRANKFORT      CLEAR     75  72  90 S3        30.00S
$$

KYZ054-064>069-076>088-106>120-020500-
SOUTHEAST KENTUCKY

CITY           SKY/WX    TMP DP  RH WIND       PRES   REMARKS
JACKSON        MOCLDY    76  66  71 CALM      30.07S
LONDON         CLEAR     74  68  81 CALM      30.07F
SOMERSET       CLEAR     73  68  83 S3        30.07S
MIDDLESBORO    PTCLDY    71  70  96 S3        30.10R
MONTICELLO     PTCLDY    71  70  97 CALM      30.08S
$$



USA.gov is the U.S. government's official web portal to all federal, state and local government web resources and services.